MOLNIYA 3-8

Satellite information

Favourite Embed

Satellite Type and Status

PAYLOADIN ORBIT

Key statistics

Satellite MOLNIYA 3-8 at a glance.

Uptime

17419

Days in orbit

Revolutions

≈ 2.0

Per day

Orbit

OTHER

Other

Inclination

63.8

Latest

Satellite identification and parameters

Extended collection of information and parameters for MOLNIYA 3-8.

Object identification

Identified? True

Debris? False

Object name: MOLNIYA 3-8

International designator: 1977-105A

Object number (NORAD): 10455

Object ID (CCSDS): 10455

Country: COMMONWEALTH OF INDEPENDENT STATES (CIS)

Current information (Y/N): Y

RCS size: LARGE

Orbital parameters

Period: 717.618 minutes

Inclination: 63.7606 deg

SMA: 26551.497 km

Apoapsis: 38310.45 km

Periapsis: 2036.273 km

RAAN: 211.9841 deg

Eccentricy: 0.683091

Argument of periapsis: 279.7747 deg

Mean anomaly: 14.993 deg

Mean motion: 2.00663903 rev/day

Mean motion (dot): -0.00000845 rev/day2

B* drag term: 0.0 1/REarth

Two-line elements (TLE)

Creation date: July 6, 2025, 6:05 p.m.

Reference frame: TEME

Reference center: EARTH

Epoch: July 6, 2025, 12:56 a.m. UTC

TLE line 0: 0 MOLNIYA 3-8

TLE line 1: 1 10455U 77105A 25187.03913712 -.00000845 00000-0 00000-0 0 9992

TLE line 2: 2 10455 63.7606 211.9841 6830910 279.7747 14.9930 2.00663903349507

Live tracking on map

Real-time ground track for satellite MOLNIYA 3-8.

In-orbit conjunctions

There are no conjunctions computed for MOLNIYA 3-8, at the moment. Check back to stay up to date, as we update our databases every day.

Go to all conjunctions

Associated space launch

Molniya communication satellites operating from a highly elliptical orbit

MOLNIYA 3-8 was lifted into orbit during the mission ‘Molniya-M | Molniya-3 18L’, on board a Molniya-M space rocket.

The launch took place on Oct. 28, 1977, 1:37 a.m. from 43/3 (43L).

For more information about the launch, click the button.

Launch to space Molniya-M | Molniya-3 18L
Molniya-M | Molniya-3 18L

Agency: N/A

Status: Launch Successful

Launch date: Oct. 28, 1977, 1:37 a.m. UTC

Rocket: Molniya-M

Launch pad: 43/3 (43L)

Location: Plesetsk Cosmodrome, Russian Federation

...

Latest news about this satellite

There are no fresh news available about this satellite. Check back as we update our databases every day.


Newsletter sign-up

Weekly statistics, charts and insights to help you stay on top of the space industry.